Powrót do katalogu

SECOR 1B

AktywnyNawigacjaLEO
NORAD 729·PAYLOAD·🇺🇸 United States

Wystrzelony Jan 11, 1964 z Vandenberg Space Force Base

Loading…

Następne Przeloty (najbliższe 24 godziny)

TLE

ŚwieżeSource: Space-Track

Epoka: Sep 14, 2026, 06:59 UTC

1 00729U 64001C   26257.29155604 -.00000011  00000-0  31697-4 0  9996
2 00729  69.8990 101.6765 0015936 315.3250  44.6570 13.95233692189131

Śledź SECOR 1B w czasie rzeczywistym z AllMySat

Download on the App Store